EZY85KR EGKK-LFRN

Flight info

Callsign EZY85KR
Flight time 0h 46m
Altitude 28000
Route IMVUR N63 SAM M195 MARUK N621 LELNA DCT DOMOK UT260 UPALO
Aircraft A319/M-SDE2E3FGIJ1RWXYZ/LB1

Departure

Time 2026-05-05 13:13
Airport London Gatwick Airport (EGKK)

Arrival

Time 2026-05-05 14:00
Airport Rennes-Saint-Jacques Airport (LFRN)
Time Latitude Longitude Altitude Speed Heading
2026-05-05 12:34 51.15637 -0.17848 204 ft 0 kts 167°
2026-05-05 12:58 51.15638 -0.17848 204 ft 1 kts 167°
2026-05-05 12:59 51.15662 -0.17857 216 ft 4 kts 167°
2026-05-05 12:59 51.15688 -0.17866 214 ft 3 kts 167°
2026-05-05 12:59 51.15706 -0.17869 213 ft 4 kts 219°
2026-05-05 13:00 51.15718 -0.17824 204 ft 1 kts 257°
2026-05-05 13:03 51.15717 -0.17825 204 ft 1 kts 257°
2026-05-05 13:03 51.15714 -0.17852 210 ft 4 kts 257°
2026-05-05 13:03 51.15703 -0.17925 209 ft 9 kts 257°
2026-05-05 13:03 51.15687 -0.18045 207 ft 13 kts 257°
2026-05-05 13:04 51.15664 -0.18209 210 ft 17 kts 257°
2026-05-05 13:04 51.15638 -0.18393 204 ft 17 kts 257°
2026-05-05 13:04 51.15613 -0.18581 210 ft 18 kts 258°
2026-05-05 13:04 51.15587 -0.18771 209 ft 18 kts 257°
2026-05-05 13:05 51.15488 -0.18806 204 ft 16 kts 167°
2026-05-05 13:05 51.15377 -0.18765 204 ft 17 kts 167°
2026-05-05 13:05 51.15259 -0.18724 204 ft 18 kts 168°
2026-05-05 13:05 51.15141 -0.18715 212 ft 17 kts 218°
2026-05-05 13:06 51.15109 -0.18888 206 ft 17 kts 258°
2026-05-05 13:06 51.15085 -0.19065 210 ft 17 kts 257°
2026-05-05 13:06 51.15056 -0.19241 210 ft 16 kts 238°
2026-05-05 13:06 51.14970 -0.19284 212 ft 11 kts 237°
2026-05-05 13:07 51.14945 -0.19410 206 ft 13 kts 257°
2026-05-05 13:07 51.14922 -0.19568 209 ft 15 kts 257°
2026-05-05 13:07 51.14898 -0.19736 215 ft 16 kts 257°
2026-05-05 13:07 51.14873 -0.19916 204 ft 17 kts 257°
2026-05-05 13:08 51.14845 -0.20122 203 ft 21 kts 258°
2026-05-05 13:08 51.14814 -0.20360 202 ft 22 kts 258°
2026-05-05 13:08 51.14782 -0.20596 208 ft 22 kts 257°
2026-05-05 13:08 51.14749 -0.20834 206 ft 22 kts 258°
2026-05-05 13:09 51.14717 -0.21068 204 ft 22 kts 257°
2026-05-05 13:09 51.14691 -0.21254 206 ft 13 kts 257°
2026-05-05 13:09 51.14660 -0.21329 206 ft 0 kts 201°
2026-05-05 13:09 51.14657 -0.21331 206 ft 1 kts 198°
2026-05-05 13:10 51.14636 -0.21332 204 ft 4 kts 177°
2026-05-05 13:10 51.14612 -0.21324 204 ft 0 kts 167°
2026-05-05 13:10 51.14607 -0.21323 204 ft 3 kts 167°
2026-05-05 13:11 51.14573 -0.21310 206 ft 7 kts 164°
2026-05-05 13:11 51.14530 -0.21253 202 ft 10 kts 120°
2026-05-05 13:11 51.14521 -0.21156 202 ft 6 kts 77°
2026-05-05 13:11 51.14522 -0.21149 203 ft 0 kts 77°
2026-05-05 13:12 51.14523 -0.21147 203 ft 1 kts 77°
2026-05-05 13:12 51.14566 -0.20839 205 ft 67 kts 77°
2026-05-05 13:13 51.14719 -0.19722 208 ft 135 kts 78°
2026-05-05 13:13 51.14948 -0.18046 453 ft 166 kts 77°
2026-05-05 13:13 51.15192 -0.16242 1230 ft 169 kts 75°
2026-05-05 13:13 51.15432 -0.14378 1985 ft 176 kts 75°
2026-05-05 13:14 51.15689 -0.12388 2568 ft 193 kts 75°
2026-05-05 13:14 51.15998 -0.10135 2962 ft 220 kts 75°
2026-05-05 13:14 51.16341 -0.07722 2997 ft 223 kts 74°
2026-05-05 13:14 51.17042 -0.05608 3012 ft 217 kts 39°
2026-05-05 13:15 51.18426 -0.04806 3006 ft 216 kts 359°
2026-05-05 13:15 51.19928 -0.05151 3004 ft 220 kts 349°
2026-05-05 13:15 51.21394 -0.05790 3003 ft 220 kts 335°
2026-05-05 13:15 51.22464 -0.07546 3479 ft 230 kts 298°
2026-05-05 13:16 51.22775 -0.10188 4086 ft 261 kts 266°
2026-05-05 13:16 51.22541 -0.13111 4884 ft 274 kts 260°
2026-05-05 13:16 51.22185 -0.16127 5837 ft 279 kts 258°
2026-05-05 13:16 51.21789 -0.19172 6929 ft 280 kts 258°
2026-05-05 13:17 51.21394 -0.22224 7899 ft 284 kts 258°
2026-05-05 13:17 51.21004 -0.25332 8877 ft 287 kts 259°
2026-05-05 13:17 51.20620 -0.28479 9850 ft 291 kts 259°
2026-05-05 13:17 51.20238 -0.31679 10697 ft 295 kts 259°
2026-05-05 13:18 51.19856 -0.34926 11522 ft 301 kts 260°
2026-05-05 13:18 51.19449 -0.38224 12373 ft 305 kts 259°
2026-05-05 13:18 51.19021 -0.41531 13182 ft 311 kts 259°
2026-05-05 13:18 51.18569 -0.44947 13953 ft 316 kts 258°
2026-05-05 13:19 51.18109 -0.48407 14666 ft 322 kts 259°
2026-05-05 13:19 51.17640 -0.51920 15473 ft 324 kts 257°
2026-05-05 13:19 51.16928 -0.55361 16045 ft 336 kts 248°
2026-05-05 13:19 51.16002 -0.58894 16321 ft 354 kts 247°
2026-05-05 13:20 51.15016 -0.62562 16904 ft 362 kts 246°
2026-05-05 13:20 51.14011 -0.66275 17584 ft 367 kts 246°
2026-05-05 13:20 51.13010 -0.69981 18334 ft 369 kts 246°
2026-05-05 13:20 51.11994 -0.73762 19003 ft 371 kts 247°
2026-05-05 13:21 51.10981 -0.77553 19658 ft 373 kts 247°
2026-05-05 13:21 51.09960 -0.81369 20325 ft 376 kts 246°
2026-05-05 13:21 51.08924 -0.85216 20987 ft 378 kts 246°
2026-05-05 13:21 51.07568 -0.88792 21617 ft 380 kts 229°
2026-05-05 13:22 51.05599 -0.91526 22246 ft 382 kts 211°
2026-05-05 13:22 51.03147 -0.93167 22871 ft 385 kts 195°
2026-05-05 13:22 51.00539 -0.94235 23517 ft 388 kts 194°
2026-05-05 13:22 50.97910 -0.95285 24116 ft 388 kts 194°
2026-05-05 13:23 50.95297 -0.96325 24729 ft 387 kts 194°
2026-05-05 13:23 50.92679 -0.97370 25243 ft 389 kts 194°
2026-05-05 13:23 50.90042 -0.98424 25724 ft 392 kts 194°
2026-05-05 13:23 50.87419 -0.99475 26242 ft 394 kts 194°
2026-05-05 13:24 50.84752 -1.00541 26729 ft 396 kts 194°
2026-05-05 13:24 50.82074 -1.01612 27195 ft 399 kts 194°
2026-05-05 13:24 50.79377 -1.02696 27675 ft 401 kts 194°
2026-05-05 13:24 50.76660 -1.03792 28169 ft 403 kts 194°
2026-05-05 13:25 50.73938 -1.04885 28659 ft 404 kts 194°
2026-05-05 13:25 50.72124 -1.05610 28885 ft 406 kts 194°
2026-05-05 13:25 50.66795 -1.07741 28957 ft 379 kts 194°
2026-05-05 13:26 50.61775 -1.09748 28957 ft 368 kts 193°
2026-05-05 13:26 50.56832 -1.11703 28961 ft 368 kts 193°
2026-05-05 13:27 50.51842 -1.13672 28952 ft 368 kts 193°
2026-05-05 13:27 50.46903 -1.15613 28954 ft 367 kts 193°
2026-05-05 13:28 50.41939 -1.17579 28959 ft 367 kts 193°
2026-05-05 13:28 50.36974 -1.19532 28956 ft 368 kts 193°
2026-05-05 13:29 50.32043 -1.21478 28946 ft 368 kts 193°
2026-05-05 13:29 50.27071 -1.23441 28943 ft 368 kts 193°
2026-05-05 13:30 50.22108 -1.25379 28943 ft 368 kts 193°
2026-05-05 13:30 50.17153 -1.27299 28944 ft 368 kts 193°
2026-05-05 13:31 50.12166 -1.29236 28947 ft 369 kts 193°
2026-05-05 13:31 50.07187 -1.31178 28947 ft 369 kts 193°
2026-05-05 13:32 50.02198 -1.33121 28948 ft 370 kts 193°
2026-05-05 13:32 49.97251 -1.35038 28948 ft 370 kts 193°
2026-05-05 13:33 49.92244 -1.36967 28950 ft 371 kts 192°
2026-05-05 13:33 49.87207 -1.38907 28955 ft 372 kts 192°
2026-05-05 13:34 49.82209 -1.40835 28956 ft 372 kts 193°
2026-05-05 13:34 49.77167 -1.42772 28957 ft 373 kts 192°
2026-05-05 13:35 49.72149 -1.44686 28964 ft 373 kts 192°
2026-05-05 13:35 49.67099 -1.46616 28966 ft 373 kts 192°
2026-05-05 13:36 49.62093 -1.48524 28963 ft 373 kts 192°
2026-05-05 13:36 49.57048 -1.50448 28976 ft 379 kts 192°
2026-05-05 13:37 49.54420 -1.51440 28893 ft 393 kts 192°
2026-05-05 13:37 49.51761 -1.52447 28233 ft 392 kts 192°
2026-05-05 13:37 49.49108 -1.53458 27440 ft 391 kts 191°
2026-05-05 13:37 49.46496 -1.54451 27002 ft 381 kts 191°
2026-05-05 13:38 49.43951 -1.55416 26581 ft 373 kts 192°
2026-05-05 13:38 49.41451 -1.56362 26151 ft 366 kts 191°
2026-05-05 13:38 49.39024 -1.57279 25735 ft 360 kts 191°
2026-05-05 13:38 49.36595 -1.58197 25298 ft 355 kts 192°
2026-05-05 13:39 49.34216 -1.59092 24871 ft 348 kts 192°
2026-05-05 13:39 49.31881 -1.59969 24444 ft 344 kts 191°
2026-05-05 13:39 49.29563 -1.60840 24005 ft 343 kts 191°
2026-05-05 13:39 49.27257 -1.61707 23582 ft 343 kts 191°
2026-05-05 13:40 49.24935 -1.62576 23100 ft 342 kts 190°
2026-05-05 13:40 49.22661 -1.63424 22675 ft 339 kts 192°
2026-05-05 13:40 49.20366 -1.64280 22249 ft 337 kts 191°
2026-05-05 13:40 49.18096 -1.65128 21829 ft 335 kts 191°
2026-05-05 13:41 49.15833 -1.65974 21424 ft 333 kts 191°
2026-05-05 13:41 49.13590 -1.66813 21019 ft 332 kts 191°
2026-05-05 13:41 49.11351 -1.67652 20616 ft 330 kts 192°
2026-05-05 13:41 49.09121 -1.68486 20214 ft 329 kts 192°
2026-05-05 13:42 49.06907 -1.69309 19821 ft 328 kts 190°
2026-05-05 13:42 49.04712 -1.70125 19424 ft 328 kts 190°
2026-05-05 13:42 49.02491 -1.70949 19023 ft 328 kts 190°
2026-05-05 13:42 49.00267 -1.71770 18623 ft 328 kts 190°
2026-05-05 13:43 48.98050 -1.72589 18237 ft 328 kts 191°
2026-05-05 13:43 48.95830 -1.73409 17805 ft 327 kts 190°
2026-05-05 13:43 48.93617 -1.74225 17421 ft 325 kts 191°
2026-05-05 13:43 48.91411 -1.74796 17044 ft 320 kts 180°
2026-05-05 13:44 48.89230 -1.74657 16673 ft 315 kts 168°
2026-05-05 13:44 48.87110 -1.74029 16309 ft 313 kts 165°
2026-05-05 13:44 48.84949 -1.73375 15940 ft 312 kts 166°
2026-05-05 13:44 48.82847 -1.72745 15578 ft 310 kts 165°
2026-05-05 13:45 48.80737 -1.72118 15215 ft 310 kts 166°
2026-05-05 13:45 48.78616 -1.71490 14852 ft 309 kts 165°
2026-05-05 13:45 48.76499 -1.70863 14496 ft 309 kts 166°
2026-05-05 13:45 48.74384 -1.70236 14135 ft 309 kts 165°
2026-05-05 13:46 48.72281 -1.69613 13775 ft 308 kts 166°
2026-05-05 13:46 48.70199 -1.68996 13385 ft 308 kts 165°
2026-05-05 13:46 48.68096 -1.68372 13002 ft 306 kts 165°
2026-05-05 13:46 48.66011 -1.67757 12656 ft 304 kts 166°
2026-05-05 13:47 48.63933 -1.67145 12297 ft 302 kts 166°
2026-05-05 13:47 48.61874 -1.66532 11913 ft 301 kts 165°
2026-05-05 13:47 48.59850 -1.65924 11545 ft 299 kts 165°
2026-05-05 13:47 48.57826 -1.65320 11186 ft 298 kts 166°
2026-05-05 13:48 48.55791 -1.64717 10809 ft 297 kts 165°
2026-05-05 13:48 48.53768 -1.64121 10426 ft 296 kts 165°
2026-05-05 13:48 48.51747 -1.63531 10046 ft 295 kts 166°
2026-05-05 13:48 48.49735 -1.62945 9653 ft 294 kts 166°
2026-05-05 13:49 48.47778 -1.62376 9250 ft 292 kts 165°
2026-05-05 13:49 48.45791 -1.61794 8854 ft 290 kts 165°
2026-05-05 13:49 48.43839 -1.61220 8462 ft 288 kts 166°
2026-05-05 13:49 48.41885 -1.60643 8069 ft 287 kts 166°
2026-05-05 13:50 48.39919 -1.60063 7659 ft 286 kts 166°
2026-05-05 13:50 48.37975 -1.59492 7246 ft 284 kts 165°
2026-05-05 13:50 48.36032 -1.58921 6829 ft 285 kts 166°
2026-05-05 13:50 48.34086 -1.58351 6444 ft 285 kts 166°
2026-05-05 13:51 48.32156 -1.57786 6186 ft 279 kts 167°
2026-05-05 13:51 48.30306 -1.57248 5978 ft 263 kts 165°
2026-05-05 13:51 48.28576 -1.56751 5702 ft 249 kts 165°
2026-05-05 13:51 48.26893 -1.56265 5438 ft 242 kts 165°
2026-05-05 13:52 48.25256 -1.55785 5154 ft 243 kts 165°
2026-05-05 13:52 48.23589 -1.55299 4931 ft 245 kts 166°
2026-05-05 13:52 48.21918 -1.54786 4693 ft 244 kts 160°
2026-05-05 13:52 48.20341 -1.54000 4544 ft 231 kts 156°
2026-05-05 13:53 48.18882 -1.53185 4232 ft 219 kts 155°
2026-05-05 13:53 48.17464 -1.52359 3807 ft 216 kts 154°
2026-05-05 13:53 48.16096 -1.51557 3486 ft 210 kts 154°
2026-05-05 13:53 48.14776 -1.50790 3324 ft 199 kts 154°
2026-05-05 13:54 48.13486 -1.50070 3119 ft 197 kts 158°
2026-05-05 13:54 48.12172 -1.49522 2834 ft 196 kts 160°
2026-05-05 13:54 48.10796 -1.49306 2548 ft 201 kts 180°
2026-05-05 13:54 48.09386 -1.49408 2204 ft 203 kts 178°
2026-05-05 13:55 48.07962 -1.49482 2102 ft 207 kts 178°
2026-05-05 13:55 48.06543 -1.49614 1995 ft 208 kts 188°
2026-05-05 13:55 48.05295 -1.50665 1998 ft 208 kts 230°
2026-05-05 13:55 48.04692 -1.52548 2006 ft 197 kts 269°
2026-05-05 13:56 48.04805 -1.54540 2017 ft 192 kts 288°
2026-05-05 13:56 48.05061 -1.56489 2008 ft 190 kts 288°
2026-05-05 13:56 48.05313 -1.58434 1928 ft 191 kts 288°
2026-05-05 13:56 48.05554 -1.60334 1721 ft 181 kts 289°
2026-05-05 13:57 48.05779 -1.62105 1499 ft 168 kts 289°
2026-05-05 13:57 48.05990 -1.63768 1279 ft 158 kts 288°
2026-05-05 13:57 48.06190 -1.65333 1061 ft 146 kts 288°
2026-05-05 13:57 48.06266 -1.65945 977 ft 139 kts 288°
2026-05-05 13:58 48.06433 -1.67311 789 ft 130 kts 285°
2026-05-05 13:59 48.06773 -1.69934 438 ft 128 kts 284°
2026-05-05 13:59 48.06883 -1.70800 314 ft 127 kts 285°
2026-05-05 14:00 48.07152 -1.72893 127 ft 100 kts 282°
2026-05-05 14:00 48.07234 -1.73566 122 ft 18 kts 261°
2026-05-05 14:00 48.07163 -1.73569 121 ft 7 kts 152°
2026-05-05 14:00 48.07130 -1.73542 124 ft 5 kts 146°
2026-05-05 14:01 48.07092 -1.73504 126 ft 7 kts 146°
2026-05-05 14:01 48.07071 -1.73458 129 ft 5 kts 107°
2026-05-05 14:01 48.07061 -1.73386 129 ft 10 kts 101°
2026-05-05 14:01 48.07045 -1.73259 132 ft 15 kts 101°
2026-05-05 14:02 48.07025 -1.73107 133 ft 15 kts 101°
2026-05-05 14:02 48.07006 -1.72954 133 ft 16 kts 99°
2026-05-05 14:02 48.06987 -1.72790 133 ft 16 kts 100°
2026-05-05 14:02 48.06959 -1.72687 133 ft 7 kts 176°
2026-05-05 14:03 48.06921 -1.72716 133 ft 6 kts 226°
2026-05-05 14:03 48.06911 -1.72730 133 ft 0 kts 224°
2026-05-05 14:05 48.06911 -1.72729 133 ft 0 kts 224°